TimeEST,TemperatureF,Dew PointF,Humidity,Sea Level PressureIn,VisibilityMPH,Wind Direction,Wind SpeedMPH,Gust SpeedMPH,PrecipitationIn,Events,Conditions,WindDirDegrees,DateUTC
12:39 AM,71.6,68.0,88,29.94,10.0,North,5.8,-,0.02,Rain,Light Rain,10,2013-02-16 05:39:00
12:53 AM,71.1,68.0,90,29.94,10.0,NNE,5.8,-,0.02,Rain,Light Rain,20,2013-02-16 05:53:00
1:26 AM,71.6,68.0,88,29.92,10.0,North,5.8,-,0.01,Rain,Light Rain,10,2013-02-16 06:26:00
1:48 AM,69.8,68.0,94,29.92,10.0,North,6.9,-,0.01,Rain,Light Rain,10,2013-02-16 06:48:00
1:53 AM,70.0,68.0,93,29.92,10.0,North,6.9,-,0.01,Rain,Light Rain,10,2013-02-16 06:53:00
2:19 AM,71.6,68.0,88,29.91,10.0,North,6.9,-,0.00,,Overcast,10,2013-02-16 07:19:00
2:49 AM,71.6,68.0,88,29.91,10.0,North,10.4,-,0.00,,Overcast,10,2013-02-16 07:49:00
2:53 AM,71.1,68.0,90,29.91,10.0,North,8.1,-,0.00,,Overcast,10,2013-02-16 07:53:00
3:53 AM,70.0,66.0,87,29.91,10.0,North,10.4,-,N/A,,Overcast,10,2013-02-16 08:53:00
4:53 AM,70.0,64.9,84,29.90,10.0,North,9.2,-,N/A,,Overcast,10,2013-02-16 09:53:00
5:31 AM,69.8,64.4,83,29.91,10.0,North,9.2,-,N/A,,Overcast,10,2013-02-16 10:31:00
5:53 AM,70.0,64.0,81,29.92,10.0,North,9.2,-,N/A,,Overcast,360,2013-02-16 10:53:00
6:53 AM,70.0,63.0,78,29.94,10.0,North,10.4,-,N/A,,Overcast,360,2013-02-16 11:53:00
7:00 AM,69.8,64.4,83,29.95,10.0,North,8.1,-,N/A,,Overcast,360,2013-02-16 12:00:00
7:53 AM,70.0,63.0,78,29.95,10.0,North,9.2,-,N/A,,Overcast,360,2013-02-16 12:53:00
8:53 AM,70.0,62.1,76,29.96,10.0,NNW,12.7,-,N/A,,Mostly Cloudy,340,2013-02-16 13:53:00
9:53 AM,72.0,62.1,71,29.98,10.0,North,13.8,-,N/A,,Clear,350,2013-02-16 14:53:00
10:53 AM,72.0,61.0,68,30.00,10.0,NNW,16.1,24.2,N/A,,Partly Cloudy,340,2013-02-16 15:53:00
11:53 AM,71.1,57.0,61,30.01,10.0,NNW,15.0,25.3,N/A,,Clear,330,2013-02-16 16:53:00
12:53 PM,71.1,57.0,61,30.00,10.0,NNW,15.0,25.3,N/A,,Scattered Clouds,330,2013-02-16 17:53:00
1:53 PM,70.0,57.0,63,30.00,10.0,NW,18.4,27.6,N/A,,Overcast,320,2013-02-16 18:53:00
2:53 PM,70.0,57.0,63,29.99,10.0,NNW,20.7,27.6,N/A,,Overcast,330,2013-02-16 19:53:00
3:53 PM,70.0,55.9,61,30.00,10.0,NW,21.9,29.9,N/A,,Mostly Cloudy,320,2013-02-16 20:53:00
4:53 PM,70.0,54.0,57,30.01,10.0,NNW,18.4,29.9,N/A,,Partly Cloudy,330,2013-02-16 21:53:00
5:53 PM,69.1,54.0,58,30.02,10.0,NW,18.4,26.5,N/A,,Clear,320,2013-02-16 22:53:00
6:53 PM,69.1,55.9,63,30.03,10.0,NW,20.7,35.7,N/A,,Scattered Clouds,320,2013-02-16 23:53:00
7:53 PM,66.9,55.9,68,30.06,10.0,NNW,18.4,28.8,N/A,,Mostly Cloudy,340,2013-02-17 00:53:00
8:53 PM,66.0,55.0,68,30.08,10.0,NNW,17.3,29.9,N/A,,Mostly Cloudy,340,2013-02-17 01:53:00
9:53 PM,66.0,54.0,65,30.10,10.0,NNW,17.3,25.3,N/A,,Scattered Clouds,340,2013-02-17 02:53:00
10:53 PM,66.9,53.1,61,30.10,10.0,NNW,17.3,27.6,N/A,,Mostly Cloudy,330,2013-02-17 03:53:00
11:53 PM,66.0,51.1,59,30.11,10.0,NNW,23.0,29.9,N/A,,Scattered Clouds,340,2013-02-17 04:53:00